Location: Borovka
(49.7741°N, 14.5280°E)
Time: 15:54:32
(UTC+00:00)

Thor Agena Rocket - Pass Details

Date: 12 February 2026
Orbit: 755 x 801 km, 99.1° (Epoch: 7 March)

Event Time Altitude Azimuth Distance (km) Brightness Sun altitude
Rises 05:08:52 0° 20° (NNE) 3,308 7.0 -11.6°
Reaches altitude 10° 05:11:19 10° 27° (NNE) 2,379 6.3 -11.2°
Maximum altitude 05:16:20 43° 99° (E) 1,112 5.0 -10.4°
Drops below altitude 10° 05:21:19 10° 171° (S) 2,372 6.3 -9.6°
Sets 05:23:45 0° 178° (S) 3,298 7.0 -9.2°
